Tracking 31027 objects as of 18-Jul-2025
HD Live streaming from Space Station
objects crossing your sky now

DELTA 1 DEB

Track DELTA 1 DEB now!
10-day predictions


NORAD ID: 10650
Int'l Code: 1976-077L
Perigee: 1,522.7 km
Apogee: 2,245.9 km
Inclination: 102.1 °
Period: 124.4 minutes
Semi major axis: 8255 km
RCS: 0.1608 m2 (medium)
Launch date: July 29, 1976
Source: United States (US)
Launch site: AIR FORCE WESTERN TEST RANGE (AFWTR)

Note: This is SATELLITE DEBRIS
Your satellite tracking list
Your tracking list is empty




NASA's NSSDC Master Catalog

Two Line Element Set (TLE):
1 10650U 76077L   25198.84903145  .00000050  00000-0  13858-2 0  9990
2 10650 102.0687 336.0172 0438041 184.1138 333.8203 11.57449485 72432
Source of the keplerian elements: AFSPC